Location: Goheenville
(40.9070°N, 79.3720°W)
Time: 03:13:22
(UTC-04:00)

Cosmos 1727 Rocket - Visible Passes

Search period start: 29 August 2016 00:00
Search period end: 08 September 2016 00:00
Orbit: 960 x 997 km, 82.9° (Epoch: 28 August)

Date Brightness Start Highest point End Pass type
(mag) Time Alt. Az. Time Alt. Az. Time Alt. Az.
31 Aug 7.5 06:13:35 10° E 06:15:46 12° ENE 06:17:57 10° ENE visible
31 Aug 7.0 20:37:51 10° NW 20:41:30 16° W 20:45:10 10° WSW visible
03 Sep 7.5 05:48:26 10° E 05:49:32 10° ENE 05:50:37 10° ENE visible
03 Sep 7.0 20:11:12 10° NW 20:15:16 18° W 20:19:20 10° WSW visible
04 Sep 6.8 06:10:54 10° SE 06:15:21 21° E 06:19:50 10° NE visible
07 Sep 6.8 05:44:57 10° SE 05:49:06 19° E 05:53:16 10° NE visible
